Regional Weather Roundup
Issued by NWS

Current Version | Previous Version | Text Only | Print | Product List | Glossary On
Versions: 1 2 3 4 5 6 7 8 9 10 11 12 13 14 15 16 17 18 19 20 21 22 23 24 25 26 27 28 29 30 31 32 33 34 35 36 37 38 39 40 41 42 43 44 45 46 47 48 49 50
000
ASUS44 KLIX 261413
RWRLA
LOUISIANA WEATHER ROUNDUP
NATIONAL WEATHER SERVICE NEW ORLEANS LA
800 AM CST SUN FEB 26 2017

NOTE: "FAIR" INDICATES FEW OR NO CLOUDS BELOW 12,000 FEET WITH NO
      SIGNIFICANT WEATHER AND/OR OBSTRUCTIONS TO VISIBILITY.
      SKY/WX - SKY CONDITION AND SIGNIFICANT WEATHER.
      TMP - AIR TEMPERATURE.    DP   - DEWPOINT TEMPERATURE.
      RH  - RELATIVE HUMIDITY.  PRES - PRESSURE.
      HX  - HEAT INDEX.         WCI  - WIND CHILL INDEX.

*  THESE STATIONS ARE NOT NWS OR FAA STATIONS AND ARE NOT UNDER
   NWS QUALITY CONTROL.

LAZ040-048-061>063-065-066-069-261500-
SOUTHEAST LOUISIANA

CITY           SKY/WX    TMP DP  RH WIND       PRES   REMARKS
N.O. AUDUBON   NOT AVBL
N.O. INTL ARPT SUNNY     53  40  61 E14G22    30.17R
N.O. LAKEFRONT SUNNY     52  40  63 E21       30.17R
N.O. DOWNTOWN*   N/A     50  37  61 NE10      30.18R
RESERVE*       FAIR      54  37  53 E12G17    30.17S
SLIDELL        SUNNY     46  29  51 E8        30.19R
BATON ROUGE    SUNNY     45  30  55 E13       30.17R
BOOTHVILLE     SUNNY     59  49  69 E10       30.16R
BELLE CHASSE   SUNNY     55  44  66 E14       30.16R
BOGALUSA*      FAIR      43  32  64 E5        30.21S
GALLIANO*      SUNNY     58  46  63 NE10      30.15R
NEW ROADS*     FAIR      44  29  56 E12G20    30.18R
GONZALES*      FAIR      49  35  59 E6        30.16R
HAMMOND*       SUNNY     45  30  57 E9        30.19R
HOUMA*         NOT AVBL
PORT FOURCHON* NOT AVBL

$$

LAZ041-044-053-054-261500-
SOUTHWEST LOUISIANA

CITY           SKY/WX    TMP DP  RH WIND       PRES   REMARKS
LAKE CHARLES   MOSUNNY   48  38  68 E10       30.11R
LAFAYETTE      SUNNY     50  34  54 VRB6      30.14R
PATTERSON      SUNNY     52  43  71 E12       30.14S
SALT POINT       N/A     53  41  63 VRB7      30.11S
NEW IBERIA     SUNNY     49  34  56 E12       30.14R
CHENAULT AIRPK NOT AVBL

$$

LAZ027-028-261500-
CENTRAL LOUISIANA

CITY           SKY/WX    TMP DP  RH WIND       PRES   REMARKS
FORT POLK      MOSUNNY   46  29  51 E13       30.10S
ALEXANDRIA INT SUNNY     45  30  55 SE13      30.13R
ALEXANDRIA     MOSUNNY   44  33  65 E8        30.14R

$$

LAZ001-002-261500-
NORTHWEST LOUISIANA

CITY           SKY/WX    TMP DP  RH WIND       PRES   REMARKS
SHREVEPORT     MOSUNNY   45  30  55 SE9       30.09R
BARKSDALE AFB  SUNNY     42  31  65 SE9       30.11R
DTN SHREVEPORT SUNNY     44  29  55 SE15G22   30.11R

$$

LAZ014-016-261500-
NORTHEAST LOUISIANA

CITY           SKY/WX    TMP DP  RH WIND       PRES   REMARKS
MONROE         SUNNY     43  28  55 SE7       30.16R
TALLULAH       SUNNY     42  27  55 SE12      30.18R

$$




USA.gov is the U.S. government's official web portal to all federal, state and local government web resources and services.